Location: ??????
(41.3164°N, 22.6615°E)
Time: 20:37:12
(UTC+00:00)

Meteor 1-24 Rocket - Pass Details

Date: 16 October 2021
Orbit: 790 x 927 km, 81.3° (Epoch: 29 November)

Event Time Altitude Azimuth Distance (km) Brightness Sun altitude
Rises 16:00:05 0° 350° (N) 3,429 6.9 -3.3°
Reaches altitude 10° 16:02:29 10° 350° (N) 2,510 6.2 -3.7°
Maximum altitude 16:08:13 89° 264° (W) 892 3.9 -4.8°
Drops below altitude 10° 16:14:07 10° 173° (S) 2,579 6.2 -5.9°
Sets 16:16:36 0° 173° (S) 3,531 6.9 -6.3°
